Showing default

SJ 16-02, 41634

Orbit data source: Space-Track

SJ 16-02, 41634 is a payload satellite owned by CNMSC (CN) in LEO that was launched on Wed, 29 Jun 2016 UTC via a CHANG ZHENG 4B launch vehicle from the Jiuquan Satellite Launch Center, China (JSC). Payload-class satellites include a variety of spacecraft equipped with specific instruments for various scientific and technological missions. These include communications satellites like Starlink; space stations such as the ISS; scientific satellites like the Hubble; Earth observation satellites from companies like Planet Labs, Umbra, and HawkEye 360; GPS; miniature CubeSats for education and research; and military/defense satellites.

Loading next visibility...
Identifier
41634, 2016-043A
Orbit
LEO
Country
Flag of CNCN / PRC
Related business
Manufacturer
SISE
Mission
Operational Defense Sigint
Bus & Motor
SJ-16, Unknown motor
Mass
~2,000 kg wet, ~2,000 kg dry
Launch date (UTC)
2016-06-29 (10 years ago)
Launch vehicle
CHANG ZHENG 4B
Launch site
Jiuquan Satellite Launch Center, China (JSC)
Object type
Payload
Rocket body
Debris
Shape & HBR
Box + 2 Pan, 5.0 m
Radar Cross Section
14.304 m², Large (>1 m²)

Expand to show TLE details & history
Last TLE update: 21 hours ago

TLE from 21 hours ago
0 SJ 16-02
1 41634U 16043A   26172.56464005  .00001089  00000-0  10597-3 0  9993
2 41634  75.0038 270.6877 0007458  16.0156 344.1267 14.93588557541791
Epoch: 2026-06-21T13:33Z
TLE epoch observation values (Epoch: 2026-06-21T13:33:04.900Z)
Latitude
-0.00004°
Longitude
157.65418°
Altitude
584.496 km
Speed
7.571 km/s
True Right ascension
18h 02m 45s
True Declination
0° 00' 00"
Sunlit
Object was in full shadow at epoch
Visualization orbit readout
Latitude
Unknown
Longitude
Unknown
Altitude
Unknown
Speed
Unknown
Apparent Right ascension
Unknown
Apparent Declination
Unknown
Sunlit
N/A
Visualization observer readout
Local Sidereal Time
21:30:11
Azimuth
Unknown
Elevation
Unknown
Doppler factor
Unknown
Orbital elements
Apogee altitude
589.428 km
Perigee altitude
579.043 km
Semi-major axis
6,962.373 km
Eccentricity
0.00075
Inclination
75.0038°
RAAN
270.6877°
Arg. of periapsis
16.0156°
True anomaly
344.1033°
Mean anomaly
344.1267°
Eccentric anomaly
344.115°
Mean motion
3.736 °/min
Orbital period
96.36 mins
BSTAR
0.00010597
Loading maneuver chart data...
Computing Atmospheric mass density...
Loading historical data...
Loading historical data...
Loading historical data...
Loading historical data...
Loading historical data...
Loading historical data...
Loading historical data...
Other satellites on launch #43 in the year 2016 (2016-06-29 UTC)

Documentation

Showing up to 5 results
|